Location: Champs
(48.8539°N, 2.6040°E)
Time: 11:05:58
(UTC+00:00)

FENGYUN 3A - Pass Details

Date: 26 October 2021
Orbit: 824 x 835 km, 98.5° (Epoch: 07 December)

Event Time Altitude Azimuth Distance (km) Brightness Sun altitude
Rises 04:41:45 0° 8° (N) 3,393 7.0 -17.9°
Reaches altitude 10° 04:44:15 10° 0° (N) 2,457 6.1 -17.5°
Maximum altitude 04:49:12 37° 295° (WNW) 1,285 4.2 -16.7°
Enters shadow 04:52:01 22° 244° (WSW) 1,757 4.8 -16.2°
